Regional Weather Roundup
Issued by NWS Midland/Odessa, TX

Home | Current Version | Previous Version | Text Only | Print | Product List | Glossary On
Versions: 1 2 3 4 5 6 7 8 9 10 11 12 13 14 15 16 17 18 19 20 21 22 23 24 25 26 27 28 29 30 31 32 33 34 35 36 37 38 39 40 41 42 43 44 45 46 47 48 49 50
000
ASUS44 KMAF 181710
RWRMAF
MIDLAND AREA WEATHER ROUNDUP
NATIONAL WEATHER SERVICE MIDLAND TX
1200 PM CDT SUN AUG 18 2019

...IN SOUTHWEST TEXAS AND SOUTHEAST NEW MEXICO...

CITY           SKY/WX    TMP DP  RH WIND       PRES   REMARKS
ALPINE         SUNNY     92  53  26 W16       30.12S
ANDREWS        FAIR      93  62  35 SW10      29.95F
ARTESIA        MOSUNNY   90  52  27 CALM      29.99R
BIG SPRING     NOT AVBL
CARLSBAD       MOSUNNY   93  49  22 N9        29.94S
DRYDEN           N/A     92  65  40 SE10      29.92S
FORT STOCKTON  SUNNY     98  56  24 MISG      29.93S
GUAD PASS      CLOUDY    85  40  20 W21G28    30.15R
HOBBS          MOSUNNY   93  55  27 SW10G17   29.97S
LAMESA         NOT AVBL
MARFA          SUNNY     88  56  33 W16       30.13S
MIDLAND AIRPK  SUNNY     94  64  37 S15       29.93S
MIDLAND INTL   SUNNY     95  64  35 SW15G23   29.92S
ODESSA         SUNNY     94  62  34 SW20      29.94S
PECOS          SUNNY    101  53  20 W13G20    29.90S
PRESIDIO       FAIR      92  59  33 S17       30.00S
SEMINOLE       SUNNY     92  59  32 SW7       29.99S
SNYDER         SUNNY     94  66  40 S14G23    29.91S
WINK           SUNNY     96  57  27 SW8       29.90S
$$
...OTHER STATIONS IN TEXAS...

CITY           SKY/WX    TMP DP  RH WIND       PRES   REMARKS
ABILENE        SUNNY     95  64  35 SW16G25   29.90R
AMARILLO       SUNNY     92  53  26 NW12      29.94R
AUSTIN         MOSUNNY   93  72  50 S12G22    29.91F HX 101
BROWNSVILLE    FAIR      97  76  50 SE22G29   29.89R HX 110
CORPUS CHRISTI PTSUNNY   94  77  57 S18       29.90R HX 108
DALLAS FTW     MOSUNNY   92  71  50 S13       29.89S
DEL RIO        SUNNY     92  69  47 SE8G18    29.88S
EL PASO        MOSUNNY   91  39  16 SW5       30.03S
HOUSTON INT    PTSUNNY   94  74  52 SW9       29.93S HX 104
LUBBOCK        MOSUNNY   93  61  34 SW16      29.94S
SAN ANGELO     SUNNY     97  65  34 S14G22    29.90F
SAN ANTONIO    PTSUNNY   90  71  53 S12       29.93S
WACO           SUNNY     93  71  48 S14       29.91S HX 100
WICHITA FALLS  SUNNY     83  64  52 S17       29.88R
$$
...OTHER LOCATIONS IN NEW MEXICO...

CITY           SKY/WX    TMP DP  RH WIND       PRES   REMARKS
ALAMOGORDO     MOSUNNY   90  37  15 N6        30.06
ALBUQUERQUE    CLOUDY    83  35  18 VRB3      30.16S
CANNON AFB     SUNNY     92  40  15 N8        30.02S
CLOVIS         SUNNY     93  43  17 N6        30.02R
HOLLOMAN AFB   MOSUNNY   93  37  14 N10       30.06R
ROSWELL        SUNNY     95  43  16 NE6       29.97S
RUIDOSO        MOSUNNY   82  32  16 W5        30.26S
SANTA FE       SUNNY     81  28  14 CALM      30.21S
TRUTH OR CONSE SUNNY     89  33  13 N6        30.11S
TUCUMCARI      SUNNY     90  42  18 CALM      29.99S
$$



USA.gov is the U.S. government's official web portal to all federal, state and local government web resources and services.